I3JUK-11 Weather Reports


Display with metric or nautical units.
time (UTC)temp
F
wind
direction
speed
MPH
gust
MPH
rain 1hr
in
rain 24hr
in
rain mn
in
humidity
%
barometer
mb
20260503004855 53 0 0.0 2.0 0.00 0.00 0.00 72 1017.9
20260503003955 53 0 0.0 2.0 0.00 0.00 0.00 72 1017.9
20260503003055 54 45 1.0 2.0 0.00 0.00 0.00 72 1018.0
20260503002155 54 0 0.0 2.0 0.00 0.00 0.00 71 1018.1
20260503001256 54 22 1.0 2.0 0.00 0.00 0.00 71 1018.1
20260503000355 55 22 1.0 2.0 0.00 0.00 0.00 66 1018.1
20260502235455 55 22 1.0 2.0 0.00 0.00 0.00 64 1018.3
20260502234555 56 0 0.0 1.0 0.00 0.00 0.00 64 1018.4
20260502233655 56 0 0.0 1.0 0.00 0.00 0.00 63 1018.5
20260502232755 56 0 0.0 0.0 0.00 0.00 0.00 63 1018.4
20260502231856 56 0 0.0 1.0 0.00 0.00 0.00 63 1018.4
20260502230955 56 0 0.0 1.0 0.00 0.00 0.00 62 1018.6
20260502230055 57 0 0.0 2.0 0.00 0.00 0.00 62 1018.4
20260502225155 57 202 1.0 2.0 0.00 0.00 0.00 62 1018.5
20260502224256 57 0 0.0 2.0 0.00 0.00 0.00 62 1018.7
20260502223607 57 202 1.0 2.0 0.00 0.00 0.00 62 1018.6
20260502222710 58 202 1.0 2.0 0.00 0.00 0.00 62 1018.7
20260502221556 58 198 1.0 2.0 0.00 0.00 0.00 61 1018.7
20260502220656 58 202 1.0 2.0 0.00 0.00 0.00 61 1018.8
20260502215755 58 202 2.0 2.0 0.00 0.00 0.00 61 1018.8
20260502214855 59 202 1.0 2.0 0.00 0.00 0.00 60 1018.7
20260502213955 59 0 0.0 2.0 0.00 0.00 0.00 60 1018.7
20260502213056 60 150 1.0 2.0 0.00 0.00 0.00 57 1018.8
20260502212155 60 202 2.0 2.0 0.00 0.00 0.00 57 1018.8
20260502211255 60 0 0.0 2.0 0.00 0.00 0.00 58 1018.7
20260502210606 60 72 1.0 2.0 0.00 0.00 0.00 58 1018.8
20260502205456 60 0 0.0 2.0 0.00 0.00 0.00 58 1018.8
20260502204555 60 0 0.0 2.0 0.00 0.00 0.00 57 1018.8
20260502203655 61 22 1.0 2.0 0.00 0.00 0.00 57 1018.8
20260502203005 61 0 0.0 2.0 0.00 0.00 0.00 57 1018.8
20260502201855 61 0 0.0 2.0 0.00 0.00 0.00 54 1018.9
20260502200955 62 0 0.0 2.0 0.00 0.00 0.00 54 1018.9
20260502200056 62 154 1.0 2.0 0.00 0.00 0.00 53 1018.9
20260502195155 62 31 2.0 2.0 0.00 0.00 0.00 53 1018.9
20260502194256 62 135 1.0 2.0 0.00 0.00 0.00 53 1018.9
20260502193356 63 0 0.0 2.0 0.00 0.00 0.00 52 1018.8
20260502192455 63 0 0.0 2.0 0.00 0.00 0.00 51 1018.8
20260502191555 64 0 0.0 2.0 0.00 0.00 0.00 47 1018.7
20260502190656 65 202 1.0 2.0 0.00 0.00 0.00 45 1018.8
20260502185757 65 0 0.0 1.0 0.00 0.00 0.00 43 1018.8
20260502184856 67 0 0.0 2.0 0.00 0.00 0.00 42 1018.6
20260502183955 68 164 2.0 3.0 0.00 0.00 0.00 41 1018.6
20260502183056 69 162 1.0 3.0 0.00 0.00 0.00 41 1018.5
20260502182156 69 97 2.0 3.0 0.00 0.00 0.00 40 1018.4
20260502181505 70 92 1.0 3.0 0.00 0.00 0.00 40 1018.6
20260502180356 72 187 2.0 3.0 0.00 0.00 0.00 37 1018.4
20260502164256 83 164 2.0 6.0 0.00 0.00 0.00 23 1018.5
20260502163356 83 158 4.0 6.0 0.00 0.00 0.00 23 1018.7
20260502162456 84 183 4.0 7.0 0.00 0.00 0.00 23 1018.7
20260502161555 85 180 6.0 7.0 0.00 0.00 0.00 23 1018.8
20260502160656 85 189 3.0 7.0 0.00 0.00 0.00 23 1018.9
20260502152155 86 168 4.0 7.0 0.00 0.00 0.00 23 1019.2
20260502151255 87 78 3.0 8.0 0.00 0.00 0.00 23 1019.3
20260502150355 86 114 2.0 8.0 0.00 0.00 0.00 23 1019.4
20260502130655 84 146 5.0 9.0 0.00 0.00 0.00 23 1020.7
20260502123057 85 79 2.0 9.0 0.00 0.00 0.00 24 1021.2
20260502122155 85 159 2.0 7.0 0.00 0.00 0.00 23 1021.3
20260502121256 86 164 3.0 7.0 0.00 0.00 0.00 24 1021.5
20260502120355 83 182 5.0 7.0 0.00 0.00 0.00 23 1021.6
20260502115456 83 166 3.0 8.0 0.00 0.00 0.00 24 1021.8
20260502114806 83 79 4.0 7.0 0.00 0.00 0.00 24 1021.8
20260502113655 83 202 4.0 9.0 0.00 0.00 0.00 24 1021.9
20260502112755 84 148 8.0 9.0 0.00 0.00 0.00 23 1021.9
20260502111855 84 171 5.0 8.0 0.00 0.00 0.00 23 1022.0
20260502110955 84 37 2.0 5.0 0.00 0.00 0.00 24 1022.1
20260502110055 83 169 2.0 8.0 0.00 0.00 0.00 24 1022.3
20260502105155 83 78 4.0 8.0 0.00 0.00 0.00 24 1022.5
20260502104255 82 168 4.0 8.0 0.00 0.00 0.00 25 1022.6
20260502103355 81 128 6.0 8.0 0.00 0.00 0.00 28 1022.7
20260502102455 83 42 5.0 8.0 0.00 0.00 0.00 24 1022.8
20260502101555 83 47 2.0 4.0 0.00 0.00 0.00 24 1022.9
20260502100656 82 45 3.0 4.0 0.00 0.00 0.00 25 1022.9
20260502091255 79 112 4.0 5.0 0.00 0.00 0.00 31 1023.5
20260502090355 77 124 1.0 4.0 0.00 0.00 0.00 32 1023.5
20260502070909 60 22 2.0 5.0 0.00 0.00 0.00 55 1024.2
20260502070006 60 22 2.0 4.0 0.00 0.00 0.00 59 1024.2
20260502064855 58 23 2.0 4.0 0.00 0.00 0.00 60 1024.2
20260502063956 58 25 2.0 4.0 0.00 0.00 0.00 60 1024.4
20260502063056 57 29 2.0 2.0 0.00 0.00 0.00 61 1024.4
20260502062156 56 30 2.0 2.0 0.00 0.00 0.00 61 1024.4
20260502061255 56 23 2.0 3.0 0.00 0.00 0.00 62 1024.3
20260502060605 56 22 1.0 4.0 0.00 0.00 0.00 61 1024.4
20260502055707 55 22 2.0 4.0 0.00 0.00 0.00 62 1024.3
20260502054805 54 22 2.0 3.0 0.00 0.00 0.00 62 1024.3
20260502053655 54 22 2.0 4.0 0.00 0.00 0.00 66 1024.4
20260502052755 53 25 2.0 3.0 0.00 0.00 0.00 68 1024.4
20260502051855 52 22 2.0 3.0 0.00 0.00 0.00 69 1024.3
20260502050955 52 22 2.0 2.0 0.00 0.00 0.00 69 1024.5
20260502050056 51 26 2.0 3.0 0.00 0.00 0.00 70 1024.3
20260502045155 51 28 2.0 3.0 0.00 0.00 0.00 70 1024.2
20260502044255 50 22 2.0 2.0 0.00 0.00 0.00 71 1024.3
20260502043356 49 22 2.0 2.0 0.00 0.00 0.00 72 1024.2
20260502042455 49 26 1.0 2.0 0.00 0.00 0.00 72 1024.2
20260502041555 49 42 1.0 2.0 0.00 0.00 0.00 72 1024.4
20260502040655 49 0 0.0 2.0 0.00 0.00 0.00 73 1024.3
20260502035755 48 25 1.0 2.0 0.00 0.00 0.00 73 1024.3
20260502035105 48 0 0.0 1.0 0.00 0.00 0.00 74 1024.3
20260502033955 47 0 0.0 1.0 0.00 0.00 0.00 73 1024.3
20260502033055 48 0 0.0 1.0 0.00 0.00 0.00 73 1024.1
20260502032155 48 0 0.0 1.0 0.00 0.00 0.00 73 1024.3
20260502031255 48 0 0.0 2.0 0.00 0.00 0.00 72 1024.4
20260502030355 48 30 1.0 2.0 0.00 0.00 0.00 72 1024.3
20260502025709 48 45 1.0 2.0 0.00 0.00 0.00 71 1024.3
20260502024556 49 0 0.0 1.0 0.00 0.00 0.00 71 1024.3
20260502023655 49 0 0.0 1.0 0.00 0.00 0.00 71 1024.4
20260502022756 49 0 0.0 1.0 0.00 0.00 0.00 71 1024.5
20260502022109 48 0 0.0 1.0 0.00 0.00 0.00 71 1024.4
20260502020955 49 0 0.0 1.0 0.00 0.00 0.00 71 1024.4
20260502020056 49 0 0.0 1.0 0.00 0.00 0.00 71 1024.4
20260502015156 49 0 0.0 2.0 0.00 0.00 0.00 71 1024.4
20260502014508 49 0 0.0 2.0 0.00 0.00 0.00 70 1024.4
20260502013605 49 0 0.0 1.0 0.00 0.00 0.00 70 1024.4
20260502012455 49 0 0.0 1.0 0.00 0.00 0.00 70 1024.4
20260502011556 49 0 0.0 2.0 0.00 0.00 0.00 70 1024.3
20260502010655 49 0 0.0 1.0 0.00 0.00 0.00 70 1024.3
20260502005756 50 0 0.0 1.0 0.00 0.00 0.00 69 1024.5